Springfield, MO

2:26 PM CST on November 22, 2019 (GMT -0600)
Springfield-Branson Regional

Weather History for KSGF - September, 2019

Change the Weather History Date:

Tuesday, September 24, 2019

  Actual Average Record
Temperature  
Mean Temperature 65 °F 65 °F  
Max Temperature 69 °F 77 °F 92 °F (1939)
Min Temperature 61 °F 54 °F 32 °F (1989)
Degree Days  
Heating Degree Days 0 3  
Month to date heating degree days 0 29  
Since 1 July heating degree days 0 31  
Cooling Degree Days 0 3  
Month to date cooling degree days 334 155  
Year to date cooling degree days 1577 1341  
Growing Degree Days 15 (Base 50)    
Moisture  
Dew Point 60 °F    
Average Humidity 78    
Maximum Humidity 93    
Minimum Humidity 63    
Precipitation  
Precipitation 0.40 in 0.15 in 5.03 in (1993)
Month to date precipitation 1.58 3.71  
Year to date precipitation 41.66 33.82  
Snow  
Snow 0.00 in - - ()
Month to date snowfall 0.0  
Since 1 July snowfall 0.0  
Since 1 September snowfall 0.0  
Snow Depth 0.00 in    
Sea Level Pressure  
Sea Level Pressure 29.94 in    
Wind  
Wind Speed 12 mph (SSE)    
Max Wind Speed 23 mph    
Max Gust Speed 30 mph    
Visibility 9 miles    
Events Rain    
T = Trace of Precipitation, MM = Missing Value Source: NWS Daily Summary

Daily Weather History Graph

Daily Weather History Graph

Search for Another Location

Airport or City:

Astronomy

Sep. 24, 2019 Rise Set
Actual Time 7:02 AM CDT 7:07 PM CDT
Civil Twilight 6:36 AM CDT 7:33 PM CDT
Nautical Twilight 6:06 AM CDT 8:03 PM CDT
Astronomical Twilight 5:35 AM CDT 8:34 PM CDT
Moon 1:56 AM CDT (9/24) 4:46 PM CDT (9/24)
Length of Visible Light 12h 56m
Length of Day
12h 04m
Waning Crescent, 23% of the Moon is Illuminated
Sep 24
Waning Crescent
Sep 28
New
Oct 5
First Quarter
Oct 13
Full
Oct 21
Last Quarter

Hourly Weather History & Observations

Time (CDT) Temp. Dew Point Humidity Pressure Visibility Wind Dir Wind Speed Gust Speed Precip Events Conditions
12:52 AM 63.0 °F 52.0 °F 67% 30.01 in 10.0 mi SE 9.2 mph - N/A   Clear
1:52 AM 61.0 °F 52.0 °F 72% 30.01 in 10.0 mi SE 6.9 mph - N/A   Clear
2:52 AM 62.1 °F 53.1 °F 72% 30.00 in 10.0 mi SSE 11.5 mph - N/A   Clear
3:52 AM 62.1 °F 53.1 °F 72% 29.98 in 10.0 mi SSE 11.5 mph - N/A   Clear
4:52 AM 62.1 °F 52.0 °F 70% 29.99 in 10.0 mi SSE 9.2 mph - N/A   Clear
5:52 AM 63.0 °F 52.0 °F 67% 29.98 in 10.0 mi SSE 10.4 mph - N/A   Clear
6:52 AM 63.0 °F 52.0 °F 67% 30.00 in 10.0 mi SSE 10.4 mph - N/A   Clear
7:52 AM 64.9 °F 53.1 °F 65% 29.99 in 10.0 mi SSE 10.4 mph - N/A   Scattered Clouds
8:52 AM 66.0 °F 54.0 °F 65% 29.98 in 10.0 mi SSE 15.0 mph - N/A   Clear
9:52 AM 66.9 °F 55.0 °F 66% 30.01 in 10.0 mi South 11.5 mph - N/A   Mostly Cloudy
10:52 AM 64.0 °F 57.9 °F 80% 30.03 in 6.0 mi South 18.4 mph 23.0 mph 0.02 in Rain Rain
11:11 AM 63.0 °F 60.1 °F 90% 30.04 in 4.0 mi SSE 13.8 mph - 0.08 in Rain Rain
11:42 AM 64.0 °F 63.0 °F 96% 30.01 in 4.0 mi SSE 13.8 mph 25.3 mph 0.22 in Rain Rain
11:52 AM 64.9 °F 63.0 °F 93% 29.99 in 5.0 mi SSE 16.1 mph 24.2 mph 0.25 in Rain Rain
12:31 PM 64.9 °F 63.0 °F 93% 29.98 in 6.0 mi SE 17.3 mph - 0.09 in Rain Light Rain
12:52 PM 64.9 °F 63.0 °F 93% 29.96 in 9.0 mi SE 11.5 mph - 0.12 in Rain Light Rain
1:52 PM 66.0 °F 63.0 °F 90% 29.96 in 10.0 mi South 11.5 mph - 0.01 in   Overcast
2:52 PM 66.9 °F 64.0 °F 90% 29.93 in 10.0 mi South 12.7 mph 19.6 mph 0.00 in Rain Light Rain
3:52 PM 68.0 °F 64.9 °F 90% 29.91 in 10.0 mi SSE 10.4 mph - 0.00 in Rain Light Rain
4:52 PM 68.0 °F 64.9 °F 90% 29.88 in 10.0 mi South 13.8 mph - 0.00 in Rain Light Rain
5:52 PM 68.0 °F 64.9 °F 90% 29.86 in 10.0 mi South 8.1 mph - 0.00 in Rain Light Rain
6:41 PM 68.0 °F 64.9 °F 90% 29.86 in 10.0 mi SSE 11.5 mph - 0.00 in Rain Light Rain
6:52 PM 68.0 °F 64.9 °F 90% 29.85 in 10.0 mi SSE 10.4 mph - 0.00 in Rain Light Rain
7:22 PM 66.9 °F 64.9 °F 93% 29.87 in 10.0 mi South 10.4 mph - 0.00 in Rain Light Rain
7:52 PM 66.9 °F 64.0 °F 90% 29.85 in 10.0 mi SSE 9.2 mph - 0.00 in Rain Light Rain
8:52 PM 66.9 °F 64.0 °F 90% 29.85 in 10.0 mi SSE 10.4 mph - 0.00 in Rain Light Rain
9:33 PM 66.9 °F 64.0 °F 90% 29.88 in 10.0 mi SSE 12.7 mph - 0.00 in Rain Light Rain
9:52 PM 66.9 °F 64.0 °F 90% 29.86 in 10.0 mi SSE 11.5 mph - 0.00 in Rain Light Rain
10:52 PM 66.9 °F 64.9 °F 93% 29.84 in 10.0 mi SSE 13.8 mph 20.7 mph 0.00 in Rain Light Rain
11:52 PM 66.9 °F 64.9 °F 93% 29.84 in 9.0 mi SSE 12.7 mph - 0.00 in Rain Light Rain